sat.trackr.live / text

‹ back to catalog

STARLINK-31030

NORAD 58542 · 2023-192M

PAYLOAD ACTIVE UNKNOWN

§ Identity

Operator
Country
US
Launch date
2023-12-08
Launch site
AFWTR
Launch vehicle
Mass (kg)
RCS (m²)

Purposes: comms

External: N2YO · Heavens-Above · Gunter

§ Orbital elements

Epoch: 2026-09-20T21:39:20.930976Z

Period
93.85 min
Inclination
53.1589°
Eccentricity
0.0001331
Mean motion
15.34377125 rev/d
Perigee alt
461.9 km
Apogee alt
463.7 km
Semi-major
6,840.9 km
B*
8.2900e-5
RAAN
231.7178°
Arg perigee
93.7033°
Mean anomaly
266.4122°
Rev number
15,593

§ Raw data

STARLINK-310301 58542U 23192M   26263.90232559  .00002424  00000+0  82900-4 0  99992 58542  53.1589 231.7178 0001331  93.7033 266.4122 15.34377125155933

JSON: /api/v1/satellites/58542 · /tle

For live sub-satellite position, see the globe view (requires WebGL).

§ Visibility from observer

Set your observer location to see the next 7 days of passes ≥ 10°. The values pass through the URL so the page stays shareable.

No JS? Fill the form by hand. The geolocation button needs JavaScript.